Monatsübersicht für Dezember 2018
(Diese Seite wird jeweils zur 55. Minute einer Stunde aktualisiert)

 
Wetter
Zeitraffer
Tageslänge (hh:mm)
Höchsttemperatur in °C
Uhrzeit
Tiefsttemperatur in °C
Uhrzeit
Luftfeuchte (max., in %)
Uhrzeit
Luftfeuchte (min., in %)
Uhrzeit
Luftdruck (max., in hPa)
Uhrzeit
Luftdruck (min., in hPa)
Uhrzeit
Luftdruck (Ø, in hPa)
Regenrate (max, mm/h)
Uhrzeit
Niederschlag in mm
Verdunstung in mm
Solar in W/m² (Ø)
Solar in W/m² (max.)
UV-Index (max.)
Sonnenscheindauer (hh:mm)
Windrichtung (Ø)
Windstärke (Ø in km/h)
Windstärke (Ø in bft)
Windböe (max., in km/h)
Uhrzeit
Windböe (max., in bft)
Uhrzeit
Taupunkt (max., in °C)
Uhrzeit
Taupunkt (min., in °C)
Uhrzeit
Windchill (min., in °C)
Uhrzeit
Gewitterindex (max.)
Uhrzeit
01
08:06
6.2
15:10 Uhr
-0.1
00:50 Uhr

98
10:50 Uhr
92
14:05 Uhr
1015.5
08:55 Uhr

1011.5
23:45 Uhr
1014.4
2,400
06:00 Uhr
0,600
0.229
83
212
11:55 Uhr
0.0
00:00 Uhr

02:15:00
3,0
1
12,9
00:10 Uhr

2
5.3
15:20 Uhr
-0.8
00:00 Uhr
-0.1
00:50 Uhr
0
00:00 Uhr
02
08:03
9.9
23:23 Uhr
3.1
02:25 Uhr

98
21:05 Uhr
84
12:30 Uhr
1011.6
00:00 Uhr

999.2
18:50 Uhr
1003.5
2,400
04:00 Uhr
1,800
0.178
37
88
11:20 Uhr
0.0
00:00 Uhr

00:00:00
6,2
1
24,1
12:35 Uhr

4
9.5
23:45 Uhr
2.4
02:15 Uhr
1.3
04:50 Uhr
0
00:00 Uhr
03
08:01
12.8
14:05 Uhr
7.5
23:40 Uhr

97
00:00 Uhr
86
14:30 Uhr
1000.4
18:50 Uhr

998.7
12:55 Uhr
999.6
7,200
09:15 Uhr
4,200
0.279
55
180
12:45 Uhr
0.0
00:00 Uhr

00:35:00
4,3
1
25,7
14:10 Uhr

4
11.2
12:50 Uhr
6.5
21:45 Uhr
7.5
23:40 Uhr
0
00:00 Uhr
04
07:59
9.6
03:55 Uhr
2.2
22:55 Uhr

96
00:00 Uhr
67
14:10 Uhr
1024.8
23:50 Uhr

1000.2
00:50 Uhr
1012.6
2,400
02:05 Uhr
0,600
0.762
78
178
11:55 Uhr
0.0
00:00 Uhr

01:55:00
10,0
2
46,7
13:50 Uhr

6
8.8
03:55 Uhr
0.1
17:10 Uhr
-2.2
23:40 Uhr
0
00:00 Uhr
05
07:57
7.3
11:50 Uhr
-1.1
06:55 Uhr

96
08:40 Uhr
71
14:15 Uhr
1029.0
10:40 Uhr

1023.2
23:45 Uhr
1026.6
0,000
00:00 Uhr
0,000
0.381
110
209
12:10 Uhr
0.0
00:00 Uhr

04:40:00
3,8
1
20,9
00:25 Uhr

4
3.7
11:50 Uhr
-2.0
07:00 Uhr
-2.1
00:15 Uhr
0
00:00 Uhr
06
07:56
8.6
23:35 Uhr
1.2
00:20 Uhr

96
18:55 Uhr
72
10:35 Uhr
1023.1
00:00 Uhr

1013.1
23:50 Uhr
1017.0
2,400
17:00 Uhr
0,600
0.356
35
111
12:25 Uhr
0.0
00:00 Uhr

00:00:00
5,5
1
20,9
01:05 Uhr

4
8.0
23:35 Uhr
-0.9
00:20 Uhr
-3.0
00:20 Uhr
0
00:00 Uhr
07
07:55
11.4
13:20 Uhr
8.4
00:05 Uhr

96
05:20 Uhr
91
02:15 Uhr
1012.9
00:00 Uhr

996.0
23:40 Uhr
1005.2
2,400
02:45 Uhr
7,400
0.152
28
72
12:45 Uhr
0.0
00:00 Uhr

00:00:00
6,9
1
29,0
20:50 Uhr

4
10.5
13:00 Uhr
7.7
00:00 Uhr
6.7
20:50 Uhr
0
00:00 Uhr
08
07:53
9.7
00:00 Uhr
5.4
08:05 Uhr

91
00:00 Uhr
75
14:25 Uhr
1002.4
06:25 Uhr

994.4
23:50 Uhr
999.2
2,400
01:45 Uhr
1,800
0.711
49
128
11:00 Uhr
0.0
00:00 Uhr

00:10:00
11,7
2
51,5
02:05 Uhr

6
8.3
00:00 Uhr
2.6
08:20 Uhr
-2.2
02:30 Uhr
0
00:00 Uhr
09
07:51
7.7
05:10 Uhr
6.2
01:30 Uhr

94
08:50 Uhr
81
22:50 Uhr
1000.7
23:50 Uhr

986.7
05:40 Uhr
992.2
4,800
07:45 Uhr
6,000
0.457
40
159
11:30 Uhr
0.0
00:00 Uhr

00:10:00
11,6
2
43,5
21:45 Uhr

6
6.3
05:10 Uhr
3.3
23:35 Uhr
-1.9
22:25 Uhr
0
00:00 Uhr
10
07:50
6.3
00:00 Uhr
3.3
21:05 Uhr

92
21:35 Uhr
79
00:50 Uhr
1009.9
16:15 Uhr

1001.0
00:00 Uhr
1007.7
2,400
02:00 Uhr
0,600
0.711
48
160
11:35 Uhr
0.0
00:00 Uhr

00:25:00
15,1
3
45,1
14:35 Uhr

6
3.5
01:35 Uhr
1.4
16:10 Uhr
-5.1
09:10 Uhr
0
00:00 Uhr
11
07:49
4.1
03:50 Uhr
1.6
22:05 Uhr

96
17:10 Uhr
87
02:35 Uhr
1019.4
23:50 Uhr

1009.0
04:05 Uhr
1013.6
4,800
08:05 Uhr
4,800
0.254
28
117
09:50 Uhr
0.0
00:00 Uhr

00:10:00
8,9
2
45,1
02:35 Uhr

6
2.9
17:15 Uhr
0.9
22:05 Uhr
-4.1
05:00 Uhr
0
00:00 Uhr
12
07:48
4.1
13:45 Uhr
-0.1
18:55 Uhr

96
00:00 Uhr
91
14:45 Uhr
1026.5
20:20 Uhr

1019.6
00:00 Uhr
1024.0
2,400
01:10 Uhr
0,200
0.152
54
135
13:40 Uhr
0.0
00:00 Uhr

00:45:00
3,9
1
24,1
01:30 Uhr

4
3.0
13:45 Uhr
-1.0
18:45 Uhr
-2.7
01:10 Uhr
0
00:00 Uhr
13
07:47
1.9
15:05 Uhr
0.3
17:10 Uhr

97
09:30 Uhr
94
15:55 Uhr
1026.3
00:00 Uhr

1024.1
14:25 Uhr
1024.9
2,400
11:10 Uhr
0,200
0.051
27
75
10:35 Uhr
0.0
00:00 Uhr

00:00:00
3,9
1
17,7
04:30 Uhr

3
1.2
15:05 Uhr
-0.3
16:25 Uhr
-1.6
10:55 Uhr
0
00:00 Uhr
14
07:46
0.4
00:00 Uhr
-0.7
23:05 Uhr

97
00:00 Uhr
87
12:10 Uhr
1029.6
21:45 Uhr

1024.7
00:45 Uhr
1027.0
2,400
12:35 Uhr
0,200
0.127
48
91
12:00 Uhr
0.0
00:00 Uhr

00:00:00
4,4
1
19,3
13:25 Uhr

3
0.0
00:00 Uhr
-2.0
23:45 Uhr
-3.2
13:25 Uhr
0
00:00 Uhr
15
07:46
0.3
14:45 Uhr
-1.2
05:55 Uhr

94
19:10 Uhr
90
00:40 Uhr
1030.6
09:05 Uhr

1024.3
23:50 Uhr
1028.8
0,000
00:00 Uhr
0,000
0.127
35
60
10:05 Uhr
0.0
00:00 Uhr

00:05:00
3,9
1
14,5
11:55 Uhr

3
-1.0
14:45 Uhr
-2.6
06:05 Uhr
-1.5
11:55 Uhr
0
00:00 Uhr


 
Wetter
Zeitraffer
Tageslänge (hh:mm)
Höchsttemperatur in °C
Uhrzeit
Tiefsttemperatur in °C
Uhrzeit
Luftfeuchte (max., in %)
Uhrzeit
Luftfeuchte (min., in %)
Uhrzeit
Luftdruck (max., in hPa)
Uhrzeit
Luftdruck (min., in hPa)
Uhrzeit
Luftdruck (Ø, in hPa)
Regenrate (max, mm/h)
Uhrzeit
Niederschlag in mm
Verdunstung in mm
Solar in W/m² (Ø)
Solar in W/m² (max.)
UV-Index (max.)
Sonnenscheindauer (hh:mm)
Windrichtung (Ø)
Windstärke (Ø in km/h)
Windstärke (Ø in bft)
Windböe (max., in km/h)
Uhrzeit
Windböe (max., in bft)
Uhrzeit
Taupunkt (max., in °C)
Uhrzeit
Taupunkt (min., in °C)
Uhrzeit
Windchill (min., in °C)
Uhrzeit
Gewitterindex (max.)
Uhrzeit
16
07:45
0.1
00:00 Uhr
-1.8
23:45 Uhr

93
00:00 Uhr
74
15:50 Uhr
1024.2
00:00 Uhr

1014.9
16:30 Uhr
1017.9
0,000
00:00 Uhr
0,000
0.356
20
36
12:00 Uhr
0.0
00:00 Uhr

00:00:00
7,8
2
25,7
08:15 Uhr

4
-0.9
00:00 Uhr
-4.7
15:50 Uhr
-6.3
08:15 Uhr
0
00:00 Uhr
17
07:44
-1.3
03:10 Uhr
-1.8
00:00 Uhr

92
02:00 Uhr
90
00:00 Uhr
1017.2
03:45 Uhr

1015.8
00:00 Uhr
1016.5
0,000
00:00 Uhr
0,000
0.000
0
0
00:00 Uhr
0.0
00:00 Uhr

00:00:00
2,8
1
11,3
03:30 Uhr

2
-2.5
02:45 Uhr
-3.3
00:00 Uhr
-1.8
00:00 Uhr
0
00:00 Uhr